Location: Ripley
(48.3812°N, 115.4473°W)
Time: 11:58:43
(UTC+00:00)

AIST 2D - Pass Details

Date: 07 July 2022
Orbit: 433 x 444 km, 97.0° (Epoch: 09 August)

Event Time Altitude Azimuth Distance (km) Brightness Sun altitude
Rises 05:53:21 0° 5° (N) 2,431 ? -14.6°
Reaches altitude 10° 05:55:28 10° 356° (N) 1,559 ? -14.8°
Maximum altitude 05:58:33 36° 289° (WNW) 714 ? -15.0°
Drops below altitude 10° 06:01:38 10° 221° (SW) 1,553 ? -15.2°
Enters shadow 06:01:45 - 220° (SW) 1,597 ? -15.2°
